This demonstration page uses our WeatherBlox Daily Observations layout. Learn more.

Left ArrowRight Arrow

39.01783, -85.05884

Hourly Observations for January 25, 2022

Temp ( °F °C ) Dew Point ( °F °C ) Humidity (%) Winds ( mph kmh ) Pressure ( in mb ) Visibility ( mi km ) Precip ( " mm )
12:03 am 00:03 Cloudy with Mist and Fog 32 0 28 -2.2 85 85 NW 13 20 29.92 1013 3 5 0.00 0.00
12:52 am 00:52 Cloudy 31 -0.6 24 -4.4 76 76 NW 15 24 29.91 1013 9 14 0.00 0.00
1:52 am 01:52 Cloudy 29 -1.7 22 -5.6 75 75 NNW 18 30 29.91 1013 10 16 0.00 0.00
2:52 am 02:52 Cloudy 28 -2.2 21 -6.1 75 75 NNW 13 20 29.95 1014 10 16 0.00 0.00
3:52 am 03:52 Cloudy 27 -2.8 19 -7.2 72 72 NNW 15 24 29.97 1015 9 14 0.00 0.00
4:52 am 04:52 Cloudy 26 -3.3 18 -7.8 71 71 NNW 14 22 30.01 1016 8 13 0.00 0.00
5:52 am 05:52 Cloudy 25 -3.9 16 -8.9 69 69 N 13 20 30.04 1017 10 16 0.00 0.00
6:52 am 06:52 Cloudy 24 -4.4 14 -10 65 65 N 10 17 30.08 1019 10 16 0.00 0.00
7:52 am 07:52 Cloudy 24 -4.4 14 -10 65 65 N 10 17 30.11 1020 10 16 0.00 0.00
8:52 am 08:52 Mostly Cloudy 22 -5.6 14 -10 71 71 NNW 10 17 30.15 1021 9 14 0.00 0.00
9:52 am 09:52 Partly Cloudy 23 -5 14 -10 68 68 NW 10 17 30.18 1022 8 13 0.00 0.00
10:52 am 10:52 Mostly Sunny 25 -3.9 15 -9.4 66 66 N 8 13 30.20 1023 9 14 0.00 0.00
11:52 am 11:52 Partly Cloudy 26 -3.3 14 -10 60 60 NNW 10 17 30.22 1023 10 16 0.00 0.00
12:10 pm 12:10 Mostly Cloudy 28 -2.2 14 -10 56 56 NNW 12 19 30.24 1024 10 16 0.00 0.00
12:52 pm 12:52 Mostly Cloudy 27 -2.8 14 -10 58 58 NW 5 7 30.20 1023 10 16 0.00 0.00
1:16 pm 13:16 Mostly Cloudy 26 -3.3 12 -11.1 55 55 N 5 7 30.24 1024 10 16 0.00 0.00
1:52 pm 13:52 Mostly Cloudy 27 -2.8 13 -10.6 55 55 undefined N/A 30.20 1023 10 16 0.00 0.00
2:52 pm 14:52 Mostly Cloudy 27 -2.8 12 -11.1 53 53 NNW 10 17 30.20 1023 10 16 0.00 0.00
2:58 pm 14:58 Mostly Cloudy with Light Snow 27 -2.8 12 -11.1 53 53 NNW 3 6 30.24 1024 9 14 0.00 0.00
3:09 pm 15:09 Mostly Cloudy 28 -2.2 12 -11.1 51 51 NNE 6 9 30.23 1024 10 16 0.00 0.00
3:52 pm 15:52 Mostly Cloudy 27 -2.8 12 -11.1 53 53 NNW 6 9 30.22 1023 10 16 0.00 0.00
4:23 pm 16:23 Mostly Cloudy with Light Snow 27 -2.8 12 -11.1 53 53 NW 8 13 30.27 1025 10 16 0.00 0.00
4:36 pm 16:36 Mostly Cloudy 27 -2.8 12 -11.1 53 53 W 7 11 30.27 1025 9 14 0.00 0.00
4:52 pm 16:52 Mostly Cloudy 27 -2.8 12 -11.1 53 53 NW 9 15 30.24 1024 10 16 0.00 0.00
5:52 pm 17:52 Mostly Clear 26 -3.3 12 -11.1 55 55 WNW 9 15 30.26 1025 10 16 0.00 0.00
6:52 pm 18:52 Mostly Clear 24 -4.4 11 -11.7 57 57 WNW 6 9 30.27 1025 10 16 0.00 0.00
7:52 pm 19:52 Clear 21 -6.1 10 -12.2 62 62 WNW 6 9 30.29 1026 10 16 0.00 0.00
8:52 pm 20:52 Clear 21 -6.1 9 -12.8 59 59 NNW 13 20 30.31 1026 10 16 0.00 0.00
9:52 pm 21:52 Clear 19 -7.2 8 -13.3 62 62 NNW 10 17 30.34 1028 10 16 0.00 0.00
10:52 pm 22:52 Clear 17 -8.3 7 -13.9 64 64 NNW 9 15 30.36 1028 10 16 0.00 0.00
11:52 pm 23:52 Clear 15 -9.4 4 -15.6 61 61 NNW 10 17 30.36 1028 10 16 0.00 0.00

Powered by AerisWeather